Regional Weather Roundup
Issued by NWS

Home | Current Version | Previous Version | Graphics & Text | Print | Product List | Glossary On
Versions: 1 2 3 4 5 6 7 8 9 10 11 12 13 14 15 16 17 18 19 20 21 22 23 24 25 26 27 28 29 30 31 32 33 34 35 36 37 38 39 40 41 42 43 44 45 46 47 48 49 50
000
ASUS43 KFSD 010202
RWRSD

WEATHER ROUNDUP FOR SOUTH DAKOTA
NATIONAL WEATHER SERVICE SIOUX FALLS SD
900 PM CDT THU JUL 31 2014

NOTE: "FAIR" INDICATES FEW OR NO CLOUDS BELOW 12,000 FEET WITH NO
SIGNIFICANT WEATHER AND/OR OBSTRUCTIONS TO VISIBILITY.


SDZ001>005-009-010-012>017-010300-
NORTHWEST AND NORTH CENTRAL SOUTH DAKOTA

CITY           SKY/WX    TMP DP  RH WIND       PRES   REMARKS
BUFFALO          N/A     75  49  39 S7        30.00F
FAITH            N/A     77  53  43 E7        30.05F
MOBRIDGE       CLEAR     73  57  57 E7        30.01R
$$

SDZ012>016-024>037-041>051-057-063-072>074-010300-
SOUTHWEST AND SOUTH CENTRAL SOUTH DAKOTA

CITY           SKY/WX    TMP DP  RH WIND       PRES   REMARKS
RAPID CTY ARPT PTCLDY    76  57  51 CALM      30.10S
PIERRE         CLEAR     76  59  55 E3        30.01R
CUSTER         PTCLDY    64  56  75 CALM      30.26S
ELLSWORTH AFB  PTCLDY    82  50  33 SE5       30.11R
PHILIP         CLEAR     80  51  36 NE7       30.03S
PINE RIDGE     PTCLDY    73  57  57 CALM      30.12S
WINNER         FAIR      77  56  48 E8        30.03S
$$

SDZ004>011-016>023-039-040-010300-
NORTHEAST SOUTH DAKOTA

CITY           SKY/WX    TMP DP  RH WIND       PRES   REMARKS
ABERDEEN       CLEAR     69  60  73 CALM      30.03S
WATERTOWN      CLEAR     70  56  61 CALM      30.04S
SISSETON         N/A     70  64  81 W3        30.01S
$$

SDZ017-020-022-023-036>040-048>070-010300-
SOUTHEAST SOUTH DAKOTA

CITY           SKY/WX    TMP DP  RH WIND       PRES   REMARKS
SIOUX FALLS    PTCLDY    67  60  78 CALM      30.04S
HURON          CLEAR     73  56  54 E3        30.02S
CHAMBERLAIN    CLEAR     74  57  56 CALM      30.03R
MITCHELL       CLEAR     71  64  78 E6        30.03R
YANKTON        CLEAR     70  61  73 E5        30.05R
$$

ABBREVIATIONS USED IN REMARKS
   TC - TEMPERATURE IN CELSIUS
  WCI - WIND CHILL INDEX
   HX - HEAT INDEX
  VSB - VISIBILITY



USA.gov is the U.S. government's official web portal to all federal, state and local government web resources and services.